Weather History for Newark, NJ

Change the Weather History Date:

Monday, October 14, 2013

  Actual Average Record
Temperature  
Mean Temperature 58 °F 57 °F  
Max Temperature 67 °F 66 °F 85 °F (1975)
Min Temperature 49 °F 48 °F 32 °F (1932)
Degree Days  
Heating Degree Days 7 8  
Month to date heating degree days 31 90  
Since 1 July heating degree days 78 135  
Cooling Degree Days 0 0  
Month to date cooling degree days 44 14  
Year to date cooling degree days 1334 1188  
Growing Degree Days 7 (Base 50)    
Moisture  
Dew Point 48 °F    
Average Humidity 69    
Maximum Humidity 89    
Minimum Humidity 48    
Precipitation  
Precipitation 0.00 in 0.12 in 1.57 in (1955)
Month to date precipitation 0.38 1.66  
Year to date precipitation 35.22 36.85  
Snow  
Snow 0.00 in 0.00 in 0.00 in (2002)
Month to date snowfall 0.0 0.0  
Since 1 July snowfall 0.0 0.0  
Snow Depth 0.00 in    
Sea Level Pressure  
Sea Level Pressure 30.32 in    
Wind  
Wind Speed 4 mph (ENE)    
Max Wind Speed 9 mph    
Max Gust Speed 13 mph    
Visibility 10 miles    
Events      
T = Trace of Precipitation, MM = Missing Value Source: NWS Daily Summary

Daily Weather History Graph

Daily Weather History Graph

Search for Another Location

Airport:

Trip Planner

Search our weather history database for the weather conditions in past years. The results will help you decide how hot, cold, wet, or windy it might be!

Date:

Astronomy

Oct. 14, 2013 Rise Set
Actual Time 7:06 AM EDT 6:17 PM EDT
Civil Twilight 6:39 AM EDT 6:45 PM EDT
Nautical Twilight 6:07 AM EDT 7:16 PM EDT
Astronomical Twilight 5:35 AM EDT 7:48 PM EDT
Moon 3:46 PM EDT (10/14) 2:19 AM EDT (10/14)
Length of Visible Light 12h 05m
Length of Day
11h 10m
Waxing Gibbous, 79% of the Moon is Illuminated
Oct 14
Waxing Gibbous
Oct 18
Full
Oct 26
Last Quarter
Nov 3
New
Nov 10
First Quarter

Hourly Weather History & Observations

Time (EDT) Temp. Dew Point Humidity Pressure Visibility Wind Dir Wind Speed Gust Speed Precip Events Conditions
12:51 AM 57.0 °F 48.9 °F 74% 30.36 in 10.0 mi ENE 6.9 mph - N/A   Partly Cloudy
1:37 AM 57.2 °F 48.2 °F 72% 30.36 in 10.0 mi ENE 5.8 mph - N/A   Mostly Cloudy
1:51 AM 57.0 °F 48.0 °F 72% 30.36 in 10.0 mi ENE 6.9 mph - N/A   Mostly Cloudy
2:37 AM 55.4 °F 48.2 °F 77% 30.35 in 10.0 mi ENE 6.9 mph - N/A   Scattered Clouds
2:51 AM 55.9 °F 48.0 °F 75% 30.35 in 10.0 mi ENE 4.6 mph - N/A   Partly Cloudy
3:51 AM 55.9 °F 46.9 °F 72% 30.35 in 10.0 mi ENE 5.8 mph - N/A   Partly Cloudy
4:51 AM 50.0 °F 45.0 °F 83% 30.35 in 10.0 mi North 6.9 mph - N/A   Scattered Clouds
5:51 AM 50.0 °F 46.0 °F 86% 30.35 in 10.0 mi North 5.8 mph - N/A   Partly Cloudy
6:51 AM 50.0 °F 46.9 °F 89% 30.35 in 10.0 mi NNE 4.6 mph - N/A   Partly Cloudy
7:51 AM 52.0 °F 48.0 °F 86% 30.36 in 10.0 mi North 4.6 mph - N/A   Scattered Clouds
8:51 AM 57.0 °F 48.9 °F 74% 30.37 in 10.0 mi NNE 6.9 mph - N/A   Scattered Clouds
9:51 AM 60.1 °F 48.0 °F 64% 30.37 in 10.0 mi North 4.6 mph - N/A   Scattered Clouds
10:51 AM 61.0 °F 48.0 °F 62% 30.35 in 10.0 mi Calm Calm - N/A   Scattered Clouds
11:51 AM 62.1 °F 46.9 °F 58% 30.33 in 10.0 mi NE 4.6 mph - N/A   Scattered Clouds
12:51 PM 64.0 °F 46.9 °F 54% 30.31 in 10.0 mi Variable 3.5 mph - N/A   Scattered Clouds
1:51 PM 66.0 °F 46.9 °F 50% 30.28 in 10.0 mi NE 5.8 mph - N/A   Scattered Clouds
2:51 PM 64.9 °F 46.0 °F 50% 30.27 in 10.0 mi East 5.8 mph - N/A   Scattered Clouds
3:51 PM 66.0 °F 46.0 °F 48% 30.25 in 10.0 mi East 6.9 mph - N/A   Mostly Cloudy
4:51 PM 64.0 °F 48.9 °F 58% 30.25 in 10.0 mi SE 5.8 mph - N/A   Mostly Cloudy
5:51 PM 61.0 °F 50.0 °F 67% 30.27 in 10.0 mi SSE 6.9 mph - N/A   Mostly Cloudy
6:51 PM 60.1 °F 50.0 °F 69% 30.28 in 10.0 mi SSE 5.8 mph - N/A   Scattered Clouds
7:51 PM 60.1 °F 51.1 °F 72% 30.28 in 10.0 mi SSE 6.9 mph - N/A   Scattered Clouds
8:51 PM 59.0 °F 51.1 °F 75% 30.27 in 10.0 mi Calm Calm - N/A   Scattered Clouds
9:51 PM 59.0 °F 51.1 °F 75% 30.27 in 10.0 mi Calm Calm - N/A   Partly Cloudy
10:51 PM 57.9 °F 51.1 °F 78% 30.28 in 10.0 mi Calm Calm - N/A   Partly Cloudy
11:51 PM 55.9 °F 50.0 °F 80% 30.27 in 10.0 mi Calm Calm - N/A   Partly Cloudy